CST,Max TemperatureF,Mean TemperatureF,Min TemperatureF,Max Dew PointF,MeanDew PointF,Min DewpointF,Max Humidity, Mean Humidity, Min Humidity, Max Sea Level PressureIn, Mean Sea Level PressureIn, Min Sea Level PressureIn, Max VisibilityMiles, Mean VisibilityMiles, Min VisibilityMiles, Max Wind SpeedMPH, Mean Wind SpeedMPH, Max Gust SpeedMPH,PrecipitationIn, CloudCover, Events, WindDirDegrees
2013-1-1,44,40,37,45,40,36,100,95,87,30.09,30.03,29.95,10,7,2,12,2,16,0.03,8,Rain,51
2013-1-2,39,37,35,37,36,36,100,98,93,30.16,30.10,30.04,10,8,5,9,5,,0.00,8,,4
2013-1-3,44,34,24,32,28,25,100,79,53,30.36,30.28,30.22,10,10,10,12,2,,0.00,0,,359
2013-1-4,42,32,21,28,25,19,100,82,53,30.42,30.38,30.34,10,10,7,12,1,,0.00,1,,315
2013-1-5,46,34,21,36,28,19,100,79,50,30.43,30.32,30.21,10,9,7,9,1,,0.00,3,Rain,183
2013-1-6,51,44,37,37,34,28,100,74,50,30.32,30.19,30.10,10,10,7,13,3,21,0.00,8,,272
2013-1-7,51,38,26,34,29,27,100,73,41,30.43,30.35,30.30,10,10,7,9,2,,0.00,2,,2
2013-1-8,57,40,23,39,31,21,100,83,47,30.41,30.33,30.29,10,8,5,9,1,,0.00,0,,165
2013-1-9,53,43,33,54,46,34,100,94,76,30.48,30.40,30.32,10,6,1,4,0,,0.06,7,Rain,330
2013-1-10,64,56,48,55,51,46,100,87,63,30.47,30.35,30.14,10,8,0,6,1,,0.00,6,Fog,209
2013-1-11,69,62,55,64,59,54,100,88,72,30.14,30.09,30.03,10,9,3,14,5,24,0.00,6,Rain,189
2013-1-12,71,66,60,66,64,57,100,88,73,30.13,30.06,29.98,10,10,5,9,4,,0.00,5,Rain,193
2013-1-13,69,60,48,64,60,48,100,87,64,30.12,29.99,29.93,10,8,1,20,8,33,0.53,5,Rain,201
2013-1-14,48,42,37,46,41,36,100,97,93,30.35,30.21,30.12,10,9,3,13,6,18,0.19,8,Rain,3
2013-1-15,41,39,37,39,38,37,100,98,93,30.25,30.12,29.97,10,8,2,9,3,,0.42,8,Rain,40
2013-1-16,44,42,39,45,40,39,100,98,93,30.09,30.02,29.94,10,8,2,8,1,,0.34,8,Rain,32
2013-1-17,41,34,26,39,33,25,100,89,65,30.37,30.11,30.01,10,7,0,10,3,,0.32,7,Fog-Rain-Snow,15
2013-1-18,42,33,24,34,30,23,100,91,66,30.53,30.46,30.37,10,7,0,6,1,,0.00,3,Fog,192
2013-1-19,51,38,26,36,32,25,100,75,50,30.41,30.27,30.14,10,9,1,10,2,,0.00,0,,163
2013-1-20,55,42,28,37,31,27,100,75,38,30.18,30.14,30.11,10,10,10,12,2,,0.00,0,,320
2013-1-21,46,35,24,30,19,9,100,63,34,30.21,30.13,30.07,10,10,7,20,3,26,0.00,0,,298
2013-1-22,32,26,19,9,5,3,63,42,32,30.35,30.28,30.20,10,10,10,13,5,16,0.00,3,,318
2013-1-23,46,35,24,36,16,3,93,53,37,30.34,30.22,30.07,10,10,10,14,2,25,0.00,3,,203
2013-1-24,44,32,21,36,14,3,80,53,28,30.44,30.33,30.08,10,10,7,16,8,25,0.00,1,,349
2013-1-25,37,32,26,36,27,7,100,83,43,30.34,30.16,30.05,10,6,1,13,3,17,0.22,7,Rain-Snow,184
2013-1-26,35,30,26,34,30,27,100,89,75,30.39,30.29,30.19,10,8,2,7,2,,0.00,6,,24
2013-1-27,46,35,24,43,34,25,100,86,66,30.42,30.36,30.31,10,9,5,8,1,,0.00,4,Rain,200
2013-1-28,55,48,42,52,45,37,94,82,71,30.34,30.26,30.20,10,10,5,13,6,24,0.01,7,Rain,173
2013-1-29,66,60,53,57,55,52,100,83,72,30.21,30.06,29.81,10,9,7,10,4,16,0.00,6,,159
2013-1-30,71,55,39,63,53,34,100,87,73,29.81,29.61,29.49,10,8,1,16,6,40,1.44,8,Rain,201
2013-1-31,42,38,33,36,26,21,93,64,46,30.01,29.94,29.74,10,10,4,22,8,34,0.00,7,Rain-Snow,267